Hourly Weather Nakuru

Today, 30 September, Wednesday

Time Temperature Precipitation Wind Pressure Humidity
00:00 +15°C° 0 mm 1 mps 603 mmHg 83%
01:00 +15°C° 0 mm 1 mps 603 mmHg 83%
02:00 +15°C° 0 mm 1 mps 603 mmHg 84%
03:00 +15°C° 0 mm 1 mps 603 mmHg 84%
04:00 +14°C° 0 mm 1 mps 603 mmHg 84%
05:00 +14°C° 0 mm 1 mps 603 mmHg 85%
06:00 +16°C° 0 mm 2 mps 604 mmHg 80%
07:00 +18°C° 0 mm 2 mps 605 mmHg 75%
08:00 +20°C° 0 mm 2 mps 606 mmHg 70%
09:00 +23°C° 0.1 mm 2 mps 606 mmHg 62%
10:00 +25°C° 0.1 mm 2 mps 607 mmHg 54%
11:00 +26°C° 0.1 mm 2 mps 607 mmHg 45%
12:00 +27°C° 0.1 mm 2 mps 606 mmHg 44%
13:00 +27°C° 0.1 mm 2 mps 606 mmHg 43%
14:00 +27°C° 0.1 mm 3 mps 605 mmHg 41%
15:00 +24°C° 0.6 mm 2 mps 604 mmHg 53%
16:00 +21°C° 0.6 mm 2 mps 603 mmHg 64%
17:00 +18°C° 0.6 mm 2 mps 602 mmHg 76%
18:00 +18°C° 0.1 mm 2 mps 602 mmHg 76%
19:00 +19°C° 0.1 mm 1 mps 603 mmHg 76%
20:00 +18°C° 0.1 mm 1 mps 604 mmHg 75%
21:00 +18°C° 0 mm 1 mps 604 mmHg 77%
22:00 +16°C° 0 mm 1 mps 604 mmHg 79%
23:00 +16°C° 0 mm 1 mps 604 mmHg 81%

Tomorrow, 1 October, Thursday

Time Temperature Precipitation Wind Pressure Humidity
00:00 +15°C° 0 mm 1 mps 603 mmHg 82%
01:00 +15°C° 0 mm 1 mps 603 mmHg 83%
02:00 +14°C° 0 mm 1 mps 602 mmHg 84%
03:00 +14°C° 0 mm 1 mps 603 mmHg 84%
04:00 +14°C° 0 mm 1 mps 603 mmHg 84%
05:00 +14°C° 0 mm 2 mps 603 mmHg 84%
06:00 +16°C° 0 mm 2 mps 604 mmHg 79%
07:00 +18°C° 0 mm 2 mps 605 mmHg 73%
08:00 +20°C° 0 mm 2 mps 606 mmHg 68%
09:00 +21°C° 0 mm 3 mps 606 mmHg 61%
10:00 +24°C° 0 mm 3 mps 606 mmHg 53%
11:00 +26°C° 0 mm 3 mps 607 mmHg 46%
12:00 +26°C° 0.1 mm 3 mps 606 mmHg 44%
13:00 +26°C° 0.1 mm 3 mps 605 mmHg 43%
14:00 +27°C° 0.1 mm 3 mps 605 mmHg 41%
15:00 +25°C° 0 mm 3 mps 604 mmHg 47%
16:00 +23°C° 0 mm 2 mps 603 mmHg 53%
17:00 +21°C° 0 mm 2 mps 603 mmHg 60%
18:00 +20°C° 0 mm 2 mps 603 mmHg 60%
19:00 +18°C° 0 mm 2 mps 603 mmHg 61%
20:00 +17°C° 0 mm 2 mps 604 mmHg 62%
21:00 +17°C° 0 mm 2 mps 603 mmHg 65%
22:00 +16°C° 0 mm 2 mps 603 mmHg 67%
23:00 +14°C° 0 mm 3 mps 603 mmHg 70%

Day after tomorrow, 2 October, Friday

Time Temperature Precipitation Wind Pressure Humidity
00:00 +14°C° 0 mm 3 mps 603 mmHg 73%
01:00 +15°C° 0 mm 2 mps 603 mmHg 76%
02:00 +14°C° 0 mm 2 mps 603 mmHg 79%
03:00 +14°C° 0 mm 2 mps 603 mmHg 80%
04:00 +14°C° 0 mm 2 mps 603 mmHg 81%
05:00 +14°C° 0 mm 2 mps 603 mmHg 83%
06:00 +16°C° 0 mm 2 mps 604 mmHg 77%
07:00 +18°C° 0 mm 3 mps 605 mmHg 71%
08:00 +20°C° 0 mm 3 mps 606 mmHg 65%
09:00 +21°C° 0 mm 3 mps 607 mmHg 57%
10:00 +24°C° 0 mm 3 mps 607 mmHg 49%
11:00 +26°C° 0 mm 3 mps 607 mmHg 42%
12:00 +26°C° 0 mm 3 mps 606 mmHg 42%
13:00 +26°C° 0 mm 3 mps 605 mmHg 43%
14:00 +25°C° 0 mm 3 mps 604 mmHg 44%
15:00 +24°C° 0 mm 3 mps 604 mmHg 48%
16:00 +23°C° 0 mm 2 mps 604 mmHg 53%
17:00 +20°C° 0 mm 2 mps 603 mmHg 57%
18:00 +19°C° 0 mm 2 mps 604 mmHg 57%
19:00 +19°C° 0 mm 2 mps 604 mmHg 56%
20:00 +18°C° 0 mm 2 mps 604 mmHg 55%
21:00 +17°C° 0 mm 2 mps 604 mmHg 62%
22:00 +16°C° 0 mm 3 mps 604 mmHg 70%
23:00 +16°C° 0 mm 3 mps 604 mmHg 77%

3 October, Saturday

Time Temperature Precipitation Wind Pressure Humidity
00:00 +16°C° 0 mm 2 mps 603 mmHg 78%
01:00 +15°C° 0 mm 2 mps 603 mmHg 79%
02:00 +15°C° 0 mm 2 mps 603 mmHg 80%
03:00 +15°C° 0 mm 2 mps 603 mmHg 81%
04:00 +14°C° 0 mm 2 mps 603 mmHg 82%
05:00 +14°C° 0 mm 2 mps 603 mmHg 83%
06:00 +16°C° 0 mm 2 mps 604 mmHg 75%
07:00 +18°C° 0 mm 3 mps 606 mmHg 68%
08:00 +20°C° 0 mm 3 mps 607 mmHg 60%
09:00 +22°C° 0 mm 3 mps 607 mmHg 53%
10:00 +25°C° 0 mm 3 mps 607 mmHg 47%
11:00 +26°C° 0 mm 3 mps 607 mmHg 40%
12:00 +25°C° 0.1 mm 4 mps 606 mmHg 43%
13:00 +23°C° 0.1 mm 4 mps 605 mmHg 46%
14:00 +22°C° 0.1 mm 4 mps 604 mmHg 50%
15:00 +22°C° 0 mm 4 mps 604 mmHg 52%
16:00 +21°C° 0 mm 3 mps 604 mmHg 54%
17:00 +20°C° 0 mm 2 mps 604 mmHg 57%
18:00 +19°C° 0 mm 2 mps 604 mmHg 56%
19:00 +18°C° 0 mm 2 mps 604 mmHg 55%
20:00 +18°C° 0 mm 1 mps 604 mmHg 54%
21:00 +17°C° 0 mm 2 mps 604 mmHg 57%
22:00 +16°C° 0 mm 2 mps 604 mmHg 60%
23:00 +16°C° 0 mm 3 mps 604 mmHg 62%

4 October, Sunday

Time Temperature Precipitation Wind Pressure Humidity
00:00 +15°C° 0 mm 2 mps 604 mmHg 64%
01:00 +15°C° 0 mm 2 mps 603 mmHg 66%
02:00 +15°C° 0 mm 2 mps 603 mmHg 67%
03:00 +14°C° 0 mm 2 mps 603 mmHg 67%
04:00 +14°C° 0 mm 2 mps 603 mmHg 67%
05:00 +14°C° 0 mm 2 mps 603 mmHg 67%
06:00 +16°C° 0 mm 2 mps 605 mmHg 62%
07:00 +19°C° 0 mm 2 mps 606 mmHg 57%
08:00 +21°C° 0 mm 2 mps 607 mmHg 52%
09:00 +24°C° 0 mm 2 mps 607 mmHg 47%
10:00 +25°C° 0 mm 2 mps 607 mmHg 42%
11:00 +27°C° 0 mm 2 mps 607 mmHg 37%
12:00 +26°C° 0 mm 2 mps 607 mmHg 39%
13:00 +26°C° 0 mm 3 mps 606 mmHg 41%
14:00 +26°C° 0 mm 3 mps 605 mmHg 43%
15:00 +24°C° 0 mm 3 mps 605 mmHg 48%
16:00 +23°C° 0 mm 2 mps 604 mmHg 54%
17:00 +20°C° 0 mm 2 mps 604 mmHg 59%
18:00 +20°C° 0 mm 2 mps 604 mmHg 58%
19:00 +20°C° 0 mm 1 mps 605 mmHg 57%
20:00 +20°C° 0 mm 1 mps 605 mmHg 56%
21:00 +19°C° 0 mm 1 mps 605 mmHg 58%
22:00 +19°C° 0 mm 1 mps 605 mmHg 61%
23:00 +17°C° 0 mm 2 mps 605 mmHg 63%

5 October, Monday

Time Temperature Precipitation Wind Pressure Humidity
00:00 +16°C° 0 mm 1 mps 604 mmHg 66%
01:00 +16°C° 0 mm 1 mps 604 mmHg 68%
02:00 +15°C° 0 mm 1 mps 603 mmHg 70%
03:00 +15°C° 0 mm 1 mps 603 mmHg 71%
04:00 +15°C° 0 mm 1 mps 604 mmHg 72%
05:00 +14°C° 0 mm 1 mps 604 mmHg 73%
06:00 +18°C° 0 mm 1 mps 605 mmHg 67%
07:00 +20°C° 0 mm 1 mps 606 mmHg 61%
08:00 +21°C° 0 mm 2 mps 607 mmHg 55%
09:00 +24°C° 0.1 mm 2 mps 607 mmHg 51%
10:00 +25°C° 0.1 mm 2 mps 607 mmHg 46%
11:00 +27°C° 0.1 mm 2 mps 607 mmHg 41%
12:00 +26°C° 0.3 mm 2 mps 606 mmHg 45%
13:00 +25°C° 0.3 mm 3 mps 605 mmHg 49%
14:00 +25°C° 0.3 mm 4 mps 604 mmHg 53%
15:00 +22°C° 1.2 mm 3 mps 604 mmHg 62%
16:00 +20°C° 1.2 mm 2 mps 603 mmHg 71%
17:00 +18°C° 1.2 mm 2 mps 603 mmHg 79%
18:00 +18°C° 0.2 mm 2 mps 604 mmHg 78%
19:00 +19°C° 0.2 mm 1 mps 604 mmHg 77%
20:00 +19°C° 0.2 mm 1 mps 605 mmHg 76%
21:00 +18°C° 0 mm 1 mps 605 mmHg 76%
22:00 +18°C° 0 mm 1 mps 605 mmHg 77%
23:00 +18°C° 0 mm 1 mps 605 mmHg 77%
Show more